Terminal Aerodrome Forecast
Issued by NWS

Home | Current Version | Previous Version | Text Only | Print | Product List | Glossary On
Versions: 1 2 3 4 5 6 7 8 9 10 11 12 13 14 15 16 17 18 19 20 21
000
FTUS44 KMAF 211700
TAFCNM
TAF
KCNM 211735Z 2118/2218 12007KT P6SM BKN030 OVC060
     FM212200 14008KT 4SM -SHRA BKN015 OVC030
      TEMPO 2200/2204 2SM TSRA BKN015 OVC030CB
     FM221200 17007KT 6SM -SHRA BKN030=

USA.gov is the U.S. government's official web portal to all federal, state and local government web resources and services.